Time,TemperatureF,DewpointF,PressureIn,WindDirection,WindDirectionDegrees,WindSpeedMPH,WindSpeedGustMPH,Humidity,HourlyPrecipIn,Conditions,Clouds,dailyrainin,SoftwareType,DateUTC
2013-05-03 00:02:00,36.9,34.8,30.34,North,1,0.0,10.0,92,0.00,,---,0.00,VWS V14.00,2013-05-03 05:02:00,
2013-05-03 00:07:00,36.9,34.8,30.34,North,1,15.0,15.0,92,0.00,,---,0.00,VWS V14.00,2013-05-03 05:07:00,
2013-05-03 00:12:00,37.0,34.9,30.33,NNE,13,6.0,10.0,92,0.00,,---,0.00,VWS V14.00,2013-05-03 05:12:00,
2013-05-03 00:18:00,37.0,34.6,30.33,North,1,3.0,17.0,91,0.00,,---,0.00,VWS V14.00,2013-05-03 05:18:00,
2013-05-03 00:24:00,37.1,34.7,30.33,NE,36,1.0,16.0,91,0.00,,---,0.00,VWS V14.00,2013-05-03 05:24:00,
2013-05-03 00:29:00,37.2,34.8,30.34,North,9,4.0,6.0,91,0.00,,---,0.00,VWS V14.00,2013-05-03 05:29:00,
2013-05-03 00:35:00,37.3,34.9,30.34,ESE,105,2.0,14.0,91,0.00,,---,0.00,VWS V14.00,2013-05-03 05:35:00,
2013-05-03 00:41:00,37.4,34.7,30.34,NNE,13,10.0,13.0,90,0.00,,---,0.00,VWS V14.00,2013-05-03 05:41:00,
2013-05-03 00:47:00,37.5,34.8,30.33,ENE,59,0.0,7.0,90,0.00,,---,0.00,VWS V14.00,2013-05-03 05:47:00,
2013-05-03 00:52:00,37.6,34.9,30.33,NE,36,7.0,10.0,90,0.00,,---,0.00,VWS V14.00,2013-05-03 05:52:00,
2013-05-03 00:57:00,37.6,34.9,30.31,NNE,25,10.0,13.0,90,0.00,,---,0.00,VWS V14.00,2013-05-03 05:57:00,
2013-05-03 01:03:00,37.7,35.0,30.31,NE,34,8.0,12.0,90,0.00,,---,0.00,VWS V14.00,2013-05-03 06:03:00,
2013-05-03 01:08:00,37.8,34.9,30.31,NE,34,11.0,15.0,89,0.00,,---,0.00,VWS V14.00,2013-05-03 06:08:00,
2013-05-03 01:14:00,37.9,35.0,30.31,NE,46,4.0,7.0,89,0.00,,---,0.00,VWS V14.00,2013-05-03 06:14:00,
2013-05-03 01:20:00,37.9,35.0,30.31,NNE,25,9.0,11.0,89,0.00,,---,0.00,VWS V14.00,2013-05-03 06:20:00,
2013-05-03 01:25:00,38.0,35.0,30.31,NNE,25,13.0,13.0,89,0.00,,---,0.00,VWS V14.00,2013-05-03 06:25:00,
2013-05-03 01:31:00,38.1,35.2,30.31,North,2,12.0,14.0,89,0.00,,---,0.00,VWS V14.00,2013-05-03 06:31:00,
2013-05-03 01:37:00,38.1,35.2,30.31,NNE,14,3.0,6.0,89,0.00,,---,0.00,VWS V14.00,2013-05-03 06:37:00,
2013-05-03 01:43:00,38.1,34.9,30.30,North,359,9.0,14.0,88,0.00,,---,0.00,VWS V14.00,2013-05-03 06:43:00,
2013-05-03 01:48:00,38.2,35.0,30.30,NNE,32,0.0,9.0,88,0.00,,---,0.00,VWS V14.00,2013-05-03 06:48:00,
2013-05-03 01:54:00,38.3,35.1,30.30,NNE,28,5.0,7.0,88,0.00,,---,0.00,VWS V14.00,2013-05-03 06:54:00,
2013-05-03 01:59:00,38.2,35.0,30.30,NNE,33,0.0,0.0,88,0.00,,---,0.00,VWS V14.00,2013-05-03 06:59:00,
2013-05-03 02:04:00,38.3,35.1,30.30,NE,49,9.0,9.0,88,0.00,,---,0.00,VWS V14.00,2013-05-03 07:04:00,
2013-05-03 02:10:00,38.3,35.3,30.30,NNE,16,0.0,6.0,89,0.00,,---,0.00,VWS V14.00,2013-05-03 07:10:00,
2013-05-03 02:16:00,38.3,35.3,30.28,North,3,8.0,11.0,89,0.00,,---,0.00,VWS V14.00,2013-05-03 07:16:00,
2013-05-03 02:21:00,38.3,35.1,30.28,NE,41,0.0,0.0,88,0.00,,---,0.00,VWS V14.00,2013-05-03 07:21:00,
2013-05-03 02:27:00,38.2,35.2,30.27,NNE,13,9.0,9.0,89,0.00,,---,0.00,VWS V14.00,2013-05-03 07:27:00,
2013-05-03 02:32:00,38.2,35.2,30.27,NE,46,5.0,5.0,89,0.00,,---,0.00,VWS V14.00,2013-05-03 07:32:00,
2013-05-03 02:37:00,38.2,35.2,30.27,NE,34,0.0,1.0,89,0.00,,---,0.00,VWS V14.00,2013-05-03 07:37:00,
2013-05-03 02:42:00,38.2,35.2,30.26,NNE,32,0.0,0.0,89,0.00,,---,0.00,VWS V14.00,2013-05-03 07:42:00,
2013-05-03 02:47:00,38.3,35.3,30.26,NNE,32,0.0,0.0,89,0.00,,---,0.00,VWS V14.00,2013-05-03 07:47:00,
2013-05-03 02:52:00,38.2,35.2,30.26,NE,41,2.0,10.0,89,0.00,,---,0.00,VWS V14.00,2013-05-03 07:52:00,
2013-05-03 02:57:00,38.2,35.2,30.25,NE,37,0.0,0.0,89,0.00,,---,0.00,VWS V14.00,2013-05-03 07:57:00,
2013-05-03 03:03:00,38.2,35.2,30.25,NE,47,0.0,0.0,89,0.00,,---,0.00,VWS V14.00,2013-05-03 08:03:00,
2013-05-03 03:08:00,38.1,35.2,30.25,NNE,27,0.0,1.0,89,0.00,,---,0.00,VWS V14.00,2013-05-03 08:08:00,
2013-05-03 03:13:00,38.1,35.2,30.25,NNW,333,0.0,0.0,89,0.00,,---,0.00,VWS V14.00,2013-05-03 08:13:00,
2013-05-03 03:18:00,38.1,35.2,30.25,NNE,20,0.0,1.0,89,0.00,,---,0.00,VWS V14.00,2013-05-03 08:18:00,
2013-05-03 03:23:00,38.0,35.0,30.25,NW,320,0.0,0.0,89,0.00,,---,0.00,VWS V14.00,2013-05-03 08:23:00,
2013-05-03 03:28:00,38.0,35.0,30.25,NNW,328,0.0,0.0,89,0.00,,---,0.00,VWS V14.00,2013-05-03 08:28:00,
2013-05-03 03:33:00,38.0,35.0,30.25,WNW,288,0.0,0.0,89,0.00,,---,0.00,VWS V14.00,2013-05-03 08:33:00,
2013-05-03 03:38:00,38.1,35.2,30.25,WNW,282,0.0,2.0,89,0.00,,---,0.00,VWS V14.00,2013-05-03 08:38:00,
2013-05-03 03:43:00,38.1,34.9,30.25,NW,316,0.0,0.0,88,0.00,,---,0.00,VWS V14.00,2013-05-03 08:43:00,
2013-05-03 03:49:00,38.2,35.0,30.25,NW,316,0.0,0.0,88,0.00,,---,0.00,VWS V14.00,2013-05-03 08:49:00,
2013-05-03 03:55:00,38.2,35.2,30.25,NE,56,0.0,0.0,89,0.00,,---,0.00,VWS V14.00,2013-05-03 08:55:00,
2013-05-03 04:00:00,38.2,35.2,30.24,WNW,290,1.0,1.0,89,0.00,,---,0.00,VWS V14.00,2013-05-03 09:00:00,
2013-05-03 04:05:00,38.2,35.2,30.24,WNW,292,0.0,0.0,89,0.00,,---,0.00,VWS V14.00,2013-05-03 09:05:00,
2013-05-03 04:11:00,38.2,35.2,30.24,WNW,291,0.0,0.0,89,0.00,,---,0.00,VWS V14.00,2013-05-03 09:11:00,
2013-05-03 04:17:00,38.1,35.2,30.24,WNW,289,0.0,0.0,89,0.00,,---,0.00,VWS V14.00,2013-05-03 09:17:00,
2013-05-03 04:23:00,38.0,35.0,30.24,WNW,290,0.0,0.0,89,0.00,,---,0.00,VWS V14.00,2013-05-03 09:23:00,
2013-05-03 04:28:00,37.9,35.0,30.23,WNW,290,0.0,0.0,89,0.00,,---,0.00,VWS V14.00,2013-05-03 09:28:00,
2013-05-03 04:33:00,37.9,35.0,30.23,NNE,19,0.0,0.0,89,0.00,,---,0.00,VWS V14.00,2013-05-03 09:33:00,
2013-05-03 04:38:00,37.8,34.9,30.23,NW,321,0.0,0.0,89,0.00,,---,0.00,VWS V14.00,2013-05-03 09:38:00,
2013-05-03 04:43:00,37.9,35.0,30.23,WNW,288,0.0,3.0,89,0.00,,---,0.00,VWS V14.00,2013-05-03 09:43:00,
2013-05-03 04:48:00,37.9,35.0,30.23,WNW,289,0.0,0.0,89,0.00,,---,0.00,VWS V14.00,2013-05-03 09:48:00,
2013-05-03 04:54:00,37.8,34.9,30.23,WNW,289,0.0,0.0,89,0.00,,---,0.00,VWS V14.00,2013-05-03 09:54:00,
2013-05-03 04:59:00,37.8,34.9,30.23,WNW,289,0.0,0.0,89,0.00,,---,0.00,VWS V14.00,2013-05-03 09:59:00,
2013-05-03 05:04:00,37.8,34.9,30.23,WNW,289,0.0,0.0,89,0.00,,---,0.00,VWS V14.00,2013-05-03 10:04:00,
2013-05-03 05:09:00,37.8,34.9,30.23,WNW,289,0.0,0.0,89,0.00,,---,0.00,VWS V14.00,2013-05-03 10:09:00,
2013-05-03 05:15:00,37.8,34.9,30.22,WNW,289,0.0,0.0,89,0.00,,---,0.00,VWS V14.00,2013-05-03 10:15:00,
2013-05-03 05:21:00,37.8,34.9,30.22,WNW,289,0.0,0.0,89,0.00,,---,0.00,VWS V14.00,2013-05-03 10:21:00,
2013-05-03 05:27:00,37.8,34.9,30.22,WNW,289,0.0,0.0,89,0.00,,---,0.00,VWS V14.00,2013-05-03 10:27:00,
2013-05-03 05:32:00,37.8,34.9,30.22,WNW,289,0.0,0.0,89,0.00,,---,0.00,VWS V14.00,2013-05-03 10:32:00,
2013-05-03 05:37:00,37.8,34.9,30.22,WNW,289,0.0,0.0,89,0.00,,---,0.00,VWS V14.00,2013-05-03 10:37:00,
2013-05-03 05:43:00,37.8,34.9,30.21,WNW,289,0.0,0.0,89,0.00,,---,0.00,VWS V14.00,2013-05-03 10:43:00,
2013-05-03 05:49:00,37.8,34.9,30.21,WNW,289,0.0,0.0,89,0.00,,---,0.00,VWS V14.00,2013-05-03 10:49:00,
2013-05-03 05:54:00,37.8,34.9,30.21,WNW,289,0.0,0.0,89,0.00,,---,0.00,VWS V14.00,2013-05-03 10:54:00,
2013-05-03 05:59:00,37.8,34.9,30.21,WNW,289,0.0,0.0,89,0.00,,---,0.00,VWS V14.00,2013-05-03 10:59:00,
2013-05-03 06:04:00,37.8,34.9,30.21,WNW,289,0.0,0.0,89,0.00,,---,0.00,VWS V14.00,2013-05-03 11:04:00,
2013-05-03 06:09:00,37.8,34.9,30.21,WNW,289,0.0,0.0,89,0.00,,---,0.00,VWS V14.00,2013-05-03 11:09:00,
2013-05-03 06:15:00,37.8,34.9,30.21,WNW,289,0.0,0.0,89,0.00,,---,0.00,VWS V14.00,2013-05-03 11:15:00,
2013-05-03 06:20:00,37.8,34.9,30.21,WNW,289,0.0,0.0,89,0.00,,---,0.00,VWS V14.00,2013-05-03 11:20:00,
2013-05-03 06:25:00,37.8,34.9,30.21,WNW,289,0.0,0.0,89,0.00,,---,0.00,VWS V14.00,2013-05-03 11:25:00,
2013-05-03 06:30:00,37.8,34.9,30.20,WNW,289,0.0,0.0,89,0.00,,---,0.00,VWS V14.00,2013-05-03 11:30:00,
2013-05-03 06:36:00,37.8,34.9,30.20,WNW,289,0.0,0.0,89,0.00,,---,0.00,VWS V14.00,2013-05-03 11:36:00,
2013-05-03 06:41:00,37.8,34.9,30.20,WNW,289,0.0,0.0,89,0.00,,---,0.00,VWS V14.00,2013-05-03 11:41:00,
2013-05-03 06:46:00,37.8,34.9,30.20,WNW,289,0.0,0.0,89,0.00,,---,0.00,VWS V14.00,2013-05-03 11:46:00,
2013-05-03 06:51:00,37.8,34.9,30.20,WNW,289,0.0,0.0,89,0.00,,---,0.00,VWS V14.00,2013-05-03 11:51:00,
2013-05-03 06:57:00,37.8,34.9,30.20,WNW,289,0.0,0.0,89,0.00,,---,0.00,VWS V14.00,2013-05-03 11:57:00,
2013-05-03 07:02:00,37.8,34.9,30.20,WNW,289,0.0,0.0,89,0.00,,---,0.00,VWS V14.00,2013-05-03 12:02:00,
2013-05-03 07:08:00,37.8,34.9,30.20,WNW,289,0.0,0.0,89,0.00,,---,0.00,VWS V14.00,2013-05-03 12:08:00,
2013-05-03 07:13:00,37.8,34.9,30.20,WNW,289,0.0,0.0,89,0.00,,---,0.00,VWS V14.00,2013-05-03 12:13:00,
2013-05-03 07:18:00,37.8,34.9,30.20,WNW,289,0.0,0.0,89,0.00,,---,0.00,VWS V14.00,2013-05-03 12:18:00,
2013-05-03 07:23:00,37.8,34.9,30.20,WNW,289,0.0,0.0,89,0.00,,---,0.00,VWS V14.00,2013-05-03 12:23:00,
2013-05-03 07:29:00,37.8,34.9,30.20,WNW,289,0.0,0.0,89,0.00,,---,0.00,VWS V14.00,2013-05-03 12:29:00,
2013-05-03 07:34:00,37.8,34.9,30.20,WNW,289,0.0,0.0,89,0.00,,---,0.00,VWS V14.00,2013-05-03 12:34:00,
2013-05-03 07:39:00,37.8,34.9,30.20,WNW,289,0.0,0.0,89,0.00,,---,0.00,VWS V14.00,2013-05-03 12:39:00,
2013-05-03 07:45:00,37.8,34.9,30.20,WNW,289,0.0,0.0,89,0.00,,---,0.00,VWS V14.00,2013-05-03 12:45:00,
2013-05-03 07:51:00,37.8,34.9,30.20,WNW,289,0.0,0.0,89,0.00,,---,0.00,VWS V14.00,2013-05-03 12:51:00,
2013-05-03 07:56:00,37.8,34.9,30.20,WNW,289,0.0,0.0,89,0.00,,---,0.00,VWS V14.00,2013-05-03 12:56:00,
2013-05-03 08:01:00,37.8,34.9,30.20,WNW,289,0.0,0.0,89,0.00,,---,0.00,VWS V14.00,2013-05-03 13:01:00,
2013-05-03 08:06:00,42.0,35.7,30.20,NNE,30,2.0,11.0,78,0.00,,---,0.00,VWS V14.00,2013-05-03 13:06:00,
2013-05-03 08:12:00,42.3,35.3,30.20,NNE,20,0.0,2.0,76,0.00,,---,0.00,VWS V14.00,2013-05-03 13:12:00,
2013-05-03 08:17:00,42.6,35.2,30.20,NE,41,6.0,9.0,75,0.00,,---,0.00,VWS V14.00,2013-05-03 13:17:00,
2013-05-03 08:22:00,42.9,35.2,30.20,NNE,26,2.0,14.0,74,0.00,,---,0.00,VWS V14.00,2013-05-03 13:22:00,
2013-05-03 08:28:00,43.3,35.6,30.20,NNE,26,0.0,12.0,74,0.00,,---,0.00,VWS V14.00,2013-05-03 13:28:00,
2013-05-03 08:34:00,43.7,34.9,30.20,North,1,5.0,12.0,71,0.00,,---,0.00,VWS V14.00,2013-05-03 13:34:00,
2013-05-03 08:40:00,44.0,35.2,30.20,NE,37,0.0,0.0,71,0.00,,---,0.00,VWS V14.00,2013-05-03 13:40:00,
2013-05-03 08:45:00,44.3,35.2,30.19,NNE,20,1.0,10.0,70,0.00,,---,0.00,VWS V14.00,2013-05-03 13:45:00,
2013-05-03 08:50:00,44.8,35.3,30.19,NNE,24,0.0,7.0,69,0.00,,---,0.00,VWS V14.00,2013-05-03 13:50:00,
2013-05-03 08:55:00,45.0,34.3,30.19,North,1,3.0,10.0,66,0.00,,---,0.00,VWS V14.00,2013-05-03 13:55:00,
2013-05-03 09:00:00,45.2,35.3,30.19,NNE,27,2.0,11.0,68,0.00,,---,0.00,VWS V14.00,2013-05-03 14:00:00,
2013-05-03 09:05:00,45.6,34.5,30.19,NE,37,0.0,6.0,65,0.00,,---,0.00,VWS V14.00,2013-05-03 14:05:00,
2013-05-03 09:11:00,46.1,34.2,30.19,North,7,2.0,4.0,63,0.00,,---,0.00,VWS V14.00,2013-05-03 14:11:00,
2013-05-03 09:16:00,46.4,34.1,30.19,NNE,15,7.0,13.0,62,0.00,,---,0.00,VWS V14.00,2013-05-03 14:16:00,
2013-05-03 09:22:00,46.4,33.7,30.19,NNE,28,4.0,10.0,61,0.00,,---,0.00,VWS V14.00,2013-05-03 14:22:00,
2013-05-03 09:28:00,46.4,33.3,30.19,NNE,12,0.0,12.0,60,0.00,,---,0.00,VWS V14.00,2013-05-03 14:28:00,
2013-05-03 09:33:00,46.8,33.7,30.19,NNE,25,10.0,11.0,60,0.00,,---,0.00,VWS V14.00,2013-05-03 14:33:00,
2013-05-03 09:39:00,46.9,32.9,30.19,North,1,0.0,13.0,58,0.00,,---,0.00,VWS V14.00,2013-05-03 14:39:00,
2013-05-03 09:44:00,47.1,32.2,30.19,NW,312,3.0,14.0,56,0.00,,---,0.00,VWS V14.00,2013-05-03 14:44:00,
2013-05-03 09:50:00,47.2,32.3,30.19,NNE,29,11.0,16.0,56,0.00,,---,0.00,VWS V14.00,2013-05-03 14:50:00,
2013-05-03 09:56:00,47.4,32.5,30.19,NE,49,3.0,6.0,56,0.00,,---,0.00,VWS V14.00,2013-05-03 14:56:00,
2013-05-03 10:01:00,47.8,32.9,30.18,North,11,3.0,3.0,56,0.00,,---,0.00,VWS V14.00,2013-05-03 15:01:00,
2013-05-03 10:06:00,48.1,31.3,30.18,North,1,12.0,20.0,52,0.00,,---,0.00,VWS V14.00,2013-05-03 15:06:00,
2013-05-03 10:12:00,48.0,30.8,30.18,NNE,23,7.0,9.0,51,0.00,,---,0.00,VWS V14.00,2013-05-03 15:12:00,
2013-05-03 10:17:00,48.8,32.0,30.18,WNW,302,0.0,1.0,52,0.00,,---,0.00,VWS V14.00,2013-05-03 15:17:00,
2013-05-03 10:22:00,49.2,31.4,30.18,WNW,297,0.0,7.0,50,0.00,,---,0.00,VWS V14.00,2013-05-03 15:22:00,
2013-05-03 10:27:00,49.4,30.5,30.17,NE,37,0.0,5.0,48,0.00,,---,0.00,VWS V14.00,2013-05-03 15:27:00,
2013-05-03 10:32:00,49.8,30.9,30.17,NW,325,1.0,4.0,48,0.00,,---,0.00,VWS V14.00,2013-05-03 15:32:00,
2013-05-03 10:37:00,50.3,29.8,30.17,NNE,15,4.0,4.0,45,0.00,,---,0.00,VWS V14.00,2013-05-03 15:37:00,
2013-05-03 10:42:00,50.4,28.2,30.17,North,4,4.0,17.0,42,0.00,,---,0.00,VWS V14.00,2013-05-03 15:42:00,
2013-05-03 10:48:00,50.4,27.0,30.17,North,1,5.0,14.0,40,0.00,,---,0.00,VWS V14.00,2013-05-03 15:48:00,
2013-05-03 10:53:00,50.8,28.0,30.17,NNE,13,15.0,15.0,41,0.00,,---,0.00,VWS V14.00,2013-05-03 15:53:00,
2013-05-03 10:58:00,50.9,27.5,30.16,North,10,0.0,11.0,40,0.00,,---,0.00,VWS V14.00,2013-05-03 15:58:00,
2013-05-03 11:04:00,51.2,27.7,30.16,NNE,21,0.0,10.0,40,0.00,,---,0.00,VWS V14.00,2013-05-03 16:04:00,
2013-05-03 11:09:00,51.6,27.5,30.16,North,8,2.0,5.0,39,0.00,,---,0.00,VWS V14.00,2013-05-03 16:09:00,
2013-05-03 11:14:00,52.1,28.5,30.16,NNE,31,0.0,2.0,40,0.00,,---,0.00,VWS V14.00,2013-05-03 16:14:00,
2013-05-03 11:20:00,52.7,27.8,30.16,NE,37,1.0,14.0,38,0.00,,---,0.00,VWS V14.00,2013-05-03 16:20:00,
2013-05-03 11:25:00,53.0,30.0,30.16,NNE,27,2.0,12.0,41,0.00,,---,0.00,VWS V14.00,2013-05-03 16:25:00,
2013-05-03 11:30:00,53.6,28.6,30.15,NE,37,2.0,13.0,38,0.00,,---,0.00,VWS V14.00,2013-05-03 16:30:00,
2013-05-03 11:35:00,53.0,26.8,30.15,NNW,337,3.0,19.0,36,0.00,,---,0.00,VWS V14.00,2013-05-03 16:35:00,
2013-05-03 11:40:00,54.1,29.1,30.15,NE,45,10.0,17.0,38,0.00,,---,0.00,VWS V14.00,2013-05-03 16:40:00,
2013-05-03 11:45:00,54.1,29.1,30.15,NNE,32,2.0,7.0,38,0.00,,---,0.00,VWS V14.00,2013-05-03 16:45:00,
2013-05-03 11:50:00,54.2,29.2,30.15,NW,315,1.0,7.0,38,0.00,,---,0.00,VWS V14.00,2013-05-03 16:50:00,
2013-05-03 11:55:00,54.1,29.7,30.15,West,274,7.0,7.0,39,0.00,,---,0.00,VWS V14.00,2013-05-03 16:55:00,
2013-05-03 12:00:00,54.7,30.2,30.14,NW,318,2.0,9.0,39,0.00,,---,0.00,VWS V14.00,2013-05-03 17:00:00,
2013-05-03 12:06:00,54.6,29.5,30.14,NNE,18,6.0,7.0,38,0.00,,---,0.00,VWS V14.00,2013-05-03 17:06:00,
2013-05-03 12:12:00,54.5,28.8,30.14,NW,318,1.0,3.0,37,0.00,,---,0.00,VWS V14.00,2013-05-03 17:12:00,
2013-05-03 12:17:00,54.6,29.5,30.14,WNW,286,1.0,11.0,38,0.00,,---,0.00,VWS V14.00,2013-05-03 17:17:00,
2013-05-03 12:22:00,55.4,28.9,30.14,WNW,293,9.0,9.0,36,0.00,,---,0.00,VWS V14.00,2013-05-03 17:22:00,
2013-05-03 12:27:00,55.4,28.2,30.13,NE,49,7.0,7.0,35,0.00,,---,0.00,VWS V14.00,2013-05-03 17:27:00,
2013-05-03 12:32:00,55.9,29.4,30.13,NE,39,3.0,4.0,36,0.00,,---,0.00,VWS V14.00,2013-05-03 17:32:00,
2013-05-03 12:37:00,56.3,28.3,30.13,WNW,292,2.0,7.0,34,0.00,,---,0.00,VWS V14.00,2013-05-03 17:37:00,
2013-05-03 12:43:00,55.6,27.0,30.12,North,9,10.0,11.0,33,0.00,,---,0.00,VWS V14.00,2013-05-03 17:43:00,
2013-05-03 12:48:00,56.2,26.8,30.12,NNW,333,0.0,7.0,32,0.00,,---,0.00,VWS V14.00,2013-05-03 17:48:00,
2013-05-03 12:53:00,56.1,26.7,30.12,NE,37,4.0,15.0,32,0.00,,---,0.00,VWS V14.00,2013-05-03 17:53:00,
2013-05-03 12:59:00,56.8,27.3,30.11,NNE,25,3.0,14.0,32,0.00,,---,0.00,VWS V14.00,2013-05-03 17:59:00,
2013-05-03 13:04:00,56.9,27.4,30.11,North,0,5.0,13.0,32,0.00,,---,0.00,VWS V14.00,2013-05-03 18:04:00,
2013-05-03 13:09:00,56.7,27.9,30.11,NNW,335,2.0,15.0,33,0.00,,---,0.00,VWS V14.00,2013-05-03 18:09:00,
2013-05-03 13:14:00,57.4,27.8,30.10,West,277,0.0,6.0,32,0.00,,---,0.00,VWS V14.00,2013-05-03 18:14:00,
2013-05-03 13:20:00,57.5,29.4,30.10,SE,131,7.0,11.0,34,0.00,,---,0.00,VWS V14.00,2013-05-03 18:20:00,
2013-05-03 13:25:00,57.7,28.1,30.10,NW,313,0.0,12.0,32,0.00,,---,0.00,VWS V14.00,2013-05-03 18:25:00,
2013-05-03 13:30:00,57.6,28.0,30.09,NNW,347,1.0,12.0,32,0.00,,---,0.00,VWS V14.00,2013-05-03 18:30:00,
2013-05-03 13:35:00,57.4,27.8,30.09,NNE,21,9.0,20.0,32,0.00,,---,0.00,VWS V14.00,2013-05-03 18:35:00,
2013-05-03 13:40:00,57.6,28.7,30.09,NW,310,0.0,10.0,33,0.00,,---,0.00,VWS V14.00,2013-05-03 18:40:00,
2013-05-03 13:45:00,58.3,28.6,30.08,WNW,285,1.0,11.0,32,0.00,,---,0.00,VWS V14.00,2013-05-03 18:45:00,
2013-05-03 13:51:00,58.6,28.1,30.08,NNE,23,1.0,3.0,31,0.00,,---,0.00,VWS V14.00,2013-05-03 18:51:00,
2013-05-03 13:57:00,58.2,28.5,30.08,NNW,345,2.0,10.0,32,0.00,,---,0.00,VWS V14.00,2013-05-03 18:57:00,
2013-05-03 14:02:00,58.6,29.6,30.08,North,7,0.0,10.0,33,0.00,,---,0.00,VWS V14.00,2013-05-03 19:02:00,
2013-05-03 14:08:00,58.6,28.1,30.08,West,281,2.0,9.0,31,0.00,,---,0.00,VWS V14.00,2013-05-03 19:08:00,
2013-05-03 14:13:00,57.9,28.2,30.07,NE,51,4.0,16.0,32,0.00,,---,0.00,VWS V14.00,2013-05-03 19:13:00,
2013-05-03 14:18:00,57.7,27.3,30.07,North,1,1.0,17.0,31,0.00,,---,0.00,VWS V14.00,2013-05-03 19:18:00,
2013-05-03 14:24:00,58.9,27.5,30.07,NNE,16,12.0,18.0,30,0.00,,---,0.00,VWS V14.00,2013-05-03 19:24:00,
2013-05-03 14:29:00,58.5,27.2,30.07,NE,34,12.0,12.0,30,0.00,,---,0.00,VWS V14.00,2013-05-03 19:29:00,
2013-05-03 14:35:00,58.5,26.4,30.07,West,280,4.0,15.0,29,0.00,,---,0.00,VWS V14.00,2013-05-03 19:35:00,
2013-05-03 14:40:00,58.6,27.3,30.07,West,278,2.0,13.0,30,0.00,,---,0.00,VWS V14.00,2013-05-03 19:40:00,
2013-05-03 14:45:00,57.8,27.4,30.06,NW,323,4.0,17.0,31,0.00,,---,0.00,VWS V14.00,2013-05-03 19:45:00,
2013-05-03 14:50:00,58.0,27.6,30.06,North,354,0.0,9.0,31,0.00,,---,0.00,VWS V14.00,2013-05-03 19:50:00,
2013-05-03 14:55:00,59.7,28.2,30.06,NW,310,2.0,18.0,30,0.00,,---,0.00,VWS V14.00,2013-05-03 19:55:00,
2013-05-03 15:00:00,59.3,27.9,30.05,North,359,2.0,11.0,30,0.00,,---,0.00,VWS V14.00,2013-05-03 20:00:00,
2013-05-03 15:06:00,59.0,27.6,30.05,WNW,295,4.0,10.0,30,0.00,,---,0.00,VWS V14.00,2013-05-03 20:06:00,
2013-05-03 15:12:00,59.6,28.1,30.05,WNW,302,5.0,10.0,30,0.00,,---,0.00,VWS V14.00,2013-05-03 20:12:00,
2013-05-03 15:17:00,59.0,26.8,30.05,NNE,30,11.0,12.0,29,0.00,,---,0.00,VWS V14.00,2013-05-03 20:17:00,
2013-05-03 15:23:00,60.0,28.5,30.05,NE,38,14.0,14.0,30,0.00,,---,0.00,VWS V14.00,2013-05-03 20:23:00,
2013-05-03 15:29:00,59.6,26.5,30.03,WNW,295,1.0,5.0,28,0.00,,---,0.00,VWS V14.00,2013-05-03 20:29:00,
2013-05-03 15:34:00,59.4,27.2,30.03,NNE,13,12.0,16.0,29,0.00,,---,0.00,VWS V14.00,2013-05-03 20:34:00,
2013-05-03 15:39:00,59.5,27.2,30.03,NNE,33,3.0,11.0,29,0.00,,---,0.00,VWS V14.00,2013-05-03 20:39:00,
2013-05-03 15:44:00,58.9,27.5,30.03,North,11,12.0,17.0,30,0.00,,---,0.00,VWS V14.00,2013-05-03 20:44:00,
2013-05-03 15:49:00,59.4,27.2,30.03,NE,41,4.0,13.0,29,0.00,,---,0.00,VWS V14.00,2013-05-03 20:49:00,
2013-05-03 15:54:00,58.7,27.4,30.03,North,9,4.0,10.0,30,0.00,,---,0.00,VWS V14.00,2013-05-03 20:54:00,
2013-05-03 15:59:00,58.8,27.5,30.02,NW,314,0.0,12.0,30,0.00,,---,0.00,VWS V14.00,2013-05-03 20:59:00,
2013-05-03 16:04:00,59.3,26.2,30.02,North,359,3.0,13.0,28,0.00,,---,0.00,VWS V14.00,2013-05-03 21:04:00,
2013-05-03 16:09:00,59.1,26.9,30.02,West,269,6.0,11.0,29,0.00,,---,0.00,VWS V14.00,2013-05-03 21:09:00,
2013-05-03 16:15:00,59.6,28.1,30.02,NNE,32,6.0,13.0,30,0.00,,---,0.00,VWS V14.00,2013-05-03 21:15:00,
2013-05-03 16:20:00,59.0,27.6,30.02,North,359,2.0,7.0,30,0.00,,---,0.00,VWS V14.00,2013-05-03 21:20:00,
2013-05-03 16:26:00,58.0,27.6,30.02,North,1,1.0,3.0,31,0.00,,---,0.00,VWS V14.00,2013-05-03 21:26:00,
2013-05-03 16:32:00,58.6,28.1,30.02,North,11,1.0,9.0,31,0.00,,---,0.00,VWS V14.00,2013-05-03 21:32:00,
2013-05-03 16:37:00,59.2,27.8,30.02,NNW,343,2.0,11.0,30,0.00,,---,0.00,VWS V14.00,2013-05-03 21:37:00,
2013-05-03 16:42:00,60.1,27.8,30.01,North,359,2.0,10.0,29,0.00,,---,0.00,VWS V14.00,2013-05-03 21:42:00,
2013-05-03 16:47:00,60.6,29.0,30.01,NE,36,1.0,4.0,30,0.00,,---,0.00,VWS V14.00,2013-05-03 21:47:00,
2013-05-03 16:52:00,60.3,27.1,30.01,NNE,15,10.0,13.0,28,0.00,,---,0.00,VWS V14.00,2013-05-03 21:52:00,
2013-05-03 16:58:00,60.1,28.6,30.00,NNE,19,4.0,12.0,30,0.00,,---,0.00,VWS V14.00,2013-05-03 21:58:00,
2013-05-03 17:03:00,59.7,27.4,30.00,North,6,10.0,12.0,29,0.00,,---,0.00,VWS V14.00,2013-05-03 22:03:00,
2013-05-03 17:08:00,59.9,27.6,30.00,NW,319,2.0,13.0,29,0.00,,---,0.00,VWS V14.00,2013-05-03 22:08:00,
2013-05-03 17:14:00,60.4,27.2,30.00,ENE,58,2.0,13.0,28,0.00,,---,0.00,VWS V14.00,2013-05-03 22:14:00,
2013-05-03 17:19:00,60.4,26.3,30.00,WNW,297,5.0,5.0,27,0.00,,---,0.00,VWS V14.00,2013-05-03 22:19:00,
2013-05-03 17:24:00,60.4,28.0,30.00,NNE,19,4.0,14.0,29,0.00,,---,0.00,VWS V14.00,2013-05-03 22:24:00,
2013-05-03 17:29:00,59.9,28.4,30.00,West,275,5.0,12.0,30,0.00,,---,0.00,VWS V14.00,2013-05-03 22:29:00,
2013-05-03 17:34:00,59.0,27.6,30.00,North,6,7.0,7.0,30,0.00,,---,0.00,VWS V14.00,2013-05-03 22:34:00,
2013-05-03 17:40:00,58.7,26.5,30.00,WNW,300,2.0,14.0,29,0.00,,---,0.00,VWS V14.00,2013-05-03 22:40:00,
2013-05-03 17:45:00,58.6,26.5,30.00,NW,319,0.0,7.0,29,0.00,,---,0.00,VWS V14.00,2013-05-03 22:45:00,
2013-05-03 17:51:00,59.4,27.2,30.00,NNW,345,1.0,5.0,29,0.00,,---,0.00,VWS V14.00,2013-05-03 22:51:00,
2013-05-03 17:56:00,59.4,27.2,30.00,NW,319,2.0,14.0,29,0.00,,---,0.00,VWS V14.00,2013-05-03 22:56:00,
2013-05-03 18:01:00,58.6,26.5,30.00,North,3,1.0,16.0,29,0.00,,---,0.00,VWS V14.00,2013-05-03 23:01:00,
2013-05-03 18:07:00,58.8,26.6,30.00,NNE,14,6.0,22.0,29,0.00,,---,0.00,VWS V14.00,2013-05-03 23:07:00,
2013-05-03 18:12:00,58.8,28.3,29.99,NNW,339,3.0,9.0,31,0.00,,---,0.00,VWS V14.00,2013-05-03 23:12:00,
2013-05-03 18:17:00,58.5,28.0,29.99,NNE,25,9.0,14.0,31,0.00,,---,0.00,VWS V14.00,2013-05-03 23:17:00,
2013-05-03 18:23:00,58.1,26.9,29.99,NNE,16,0.0,13.0,30,0.00,,---,0.00,VWS V14.00,2013-05-03 23:23:00,
2013-05-03 18:29:00,58.4,27.1,29.99,ENE,61,2.0,13.0,30,0.00,,---,0.00,VWS V14.00,2013-05-03 23:29:00,
2013-05-03 18:34:00,58.9,27.5,29.99,NNE,13,0.0,2.0,30,0.00,,---,0.00,VWS V14.00,2013-05-03 23:34:00,
2013-05-03 18:39:00,58.8,26.6,29.99,North,4,2.0,14.0,29,0.00,,---,0.00,VWS V14.00,2013-05-03 23:39:00,
2013-05-03 18:44:00,58.6,27.3,29.99,North,8,9.0,17.0,30,0.00,,---,0.00,VWS V14.00,2013-05-03 23:44:00,
2013-05-03 18:50:00,58.5,28.0,29.99,NNE,13,13.0,13.0,31,0.00,,---,0.00,VWS V14.00,2013-05-03 23:50:00,
2013-05-03 18:55:00,58.5,26.4,29.99,NNE,15,2.0,14.0,29,0.00,,---,0.00,VWS V14.00,2013-05-03 23:55:00,
2013-05-03 19:01:00,58.5,26.4,29.99,NNE,33,6.0,12.0,29,0.00,,---,0.00,VWS V14.00,2013-05-04 00:01:00,
2013-05-03 19:07:00,58.9,26.7,29.99,NE,46,9.0,16.0,29,0.00,,---,0.00,VWS V14.00,2013-05-04 00:07:00,
2013-05-03 19:12:00,58.6,26.5,29.99,NNE,23,4.0,18.0,29,0.00,,---,0.00,VWS V14.00,2013-05-04 00:12:00,
2013-05-03 19:18:00,58.1,26.9,29.99,North,352,0.0,11.0,30,0.00,,---,0.00,VWS V14.00,2013-05-04 00:18:00,
2013-05-03 19:23:00,57.9,26.7,29.99,North,359,0.0,15.0,30,0.00,,---,0.00,VWS V14.00,2013-05-04 00:23:00,
2013-05-03 19:28:00,58.0,26.8,29.99,NNE,15,1.0,12.0,30,0.00,,---,0.00,VWS V14.00,2013-05-04 00:28:00,
2013-05-03 19:33:00,57.8,27.4,29.99,NNW,343,0.0,3.0,31,0.00,,---,0.00,VWS V14.00,2013-05-04 00:33:00,
2013-05-03 19:38:00,57.5,27.1,29.99,North,8,0.0,1.0,31,0.00,,---,0.00,VWS V14.00,2013-05-04 00:38:00,
2013-05-03 19:43:00,57.2,26.1,29.99,NE,34,0.0,9.0,30,0.00,,---,0.00,VWS V14.00,2013-05-04 00:43:00,
2013-05-03 19:49:00,57.0,25.9,29.99,NNE,29,1.0,10.0,30,0.00,,---,0.00,VWS V14.00,2013-05-04 00:49:00,
2013-05-03 19:54:00,56.8,27.3,29.99,North,11,1.0,5.0,32,0.00,,---,0.00,VWS V14.00,2013-05-04 00:54:00,
2013-05-03 19:59:00,56.6,26.3,29.99,NNE,12,3.0,11.0,31,0.00,,---,0.00,VWS V14.00,2013-05-04 00:59:00,
2013-05-03 20:04:00,56.5,27.0,29.99,NNE,32,0.0,0.0,32,0.00,,---,0.00,VWS V14.00,2013-05-04 01:04:00,
2013-05-03 20:09:00,56.3,26.8,29.99,NW,311,0.0,6.0,32,0.00,,---,0.00,VWS V14.00,2013-05-04 01:09:00,
2013-05-03 20:14:00,56.1,26.7,29.99,North,11,0.0,0.0,32,0.00,,---,0.00,VWS V14.00,2013-05-04 01:14:00,
2013-05-03 20:20:00,55.9,26.5,29.99,NE,39,0.0,5.0,32,0.00,,---,0.00,VWS V14.00,2013-05-04 01:20:00,
2013-05-03 20:26:00,55.8,27.1,29.99,NNE,24,0.0,3.0,33,0.00,,---,0.00,VWS V14.00,2013-05-04 01:26:00,
2013-05-03 20:31:00,55.7,27.1,29.99,NNE,18,0.0,1.0,33,0.00,,---,0.00,VWS V14.00,2013-05-04 01:31:00,
2013-05-03 20:37:00,55.5,26.9,29.99,NNE,27,0.0,0.0,33,0.00,,---,0.00,VWS V14.00,2013-05-04 01:37:00,
2013-05-03 20:43:00,55.4,27.5,29.99,NNE,30,0.0,0.0,34,0.00,,---,0.00,VWS V14.00,2013-05-04 01:43:00,
2013-05-03 20:48:00,55.2,27.3,29.99,NNW,333,0.0,0.0,34,0.00,,---,0.00,VWS V14.00,2013-05-04 01:48:00,
2013-05-03 20:54:00,55.0,27.2,29.99,NNW,332,0.0,0.0,34,0.00,,---,0.00,VWS V14.00,2013-05-04 01:54:00,
2013-05-03 21:00:00,55.0,27.9,29.99,North,352,0.0,0.0,35,0.00,,---,0.00,VWS V14.00,2013-05-04 02:00:00,
2013-05-03 21:05:00,54.9,27.8,29.99,NNE,30,1.0,3.0,35,0.00,,---,0.00,VWS V14.00,2013-05-04 02:05:00,
2013-05-03 21:11:00,54.6,27.5,29.99,NE,37,4.0,4.0,35,0.00,,---,0.00,VWS V14.00,2013-05-04 02:11:00,
2013-05-03 21:16:00,54.4,27.3,29.99,NNE,32,4.0,4.0,35,0.00,,---,0.00,VWS V14.00,2013-05-04 02:16:00,
2013-05-03 21:21:00,54.2,27.2,29.99,NNE,32,0.0,0.0,35,0.00,,---,0.00,VWS V14.00,2013-05-04 02:21:00,
2013-05-03 21:26:00,54.1,27.8,29.99,NE,35,0.0,0.0,36,0.00,,---,0.00,VWS V14.00,2013-05-04 02:26:00,
2013-05-03 21:31:00,53.9,27.6,29.99,NE,34,0.0,0.0,36,0.00,,---,0.00,VWS V14.00,2013-05-04 02:31:00,
2013-05-03 21:37:00,53.7,27.4,29.99,NE,34,0.0,1.0,36,0.00,,---,0.00,VWS V14.00,2013-05-04 02:37:00,
2013-05-03 21:42:00,53.6,28.0,29.99,NE,34,0.0,0.0,37,0.00,,---,0.00,VWS V14.00,2013-05-04 02:42:00,
2013-05-03 21:47:00,53.5,27.9,29.99,NE,34,0.0,0.0,37,0.00,,---,0.00,VWS V14.00,2013-05-04 02:47:00,
2013-05-03 21:52:00,53.3,27.7,29.99,NE,38,0.0,4.0,37,0.00,,---,0.00,VWS V14.00,2013-05-04 02:52:00,
2013-05-03 21:57:00,53.2,27.6,29.99,NE,38,0.0,0.0,37,0.00,,---,0.00,VWS V14.00,2013-05-04 02:57:00,
2013-05-03 22:02:00,53.2,28.3,29.99,NE,38,0.0,0.0,38,0.00,,---,0.00,VWS V14.00,2013-05-04 03:02:00,
2013-05-03 22:07:00,53.1,28.2,29.99,NE,38,0.0,0.0,38,0.00,,---,0.00,VWS V14.00,2013-05-04 03:07:00,
2013-05-03 22:12:00,52.9,28.0,29.99,NE,39,0.0,0.0,38,0.00,,---,0.00,VWS V14.00,2013-05-04 03:12:00,
2013-05-03 22:18:00,52.3,31.0,29.99,NE,46,0.0,0.0,44,0.00,,---,0.00,VWS V14.00,2013-05-04 03:18:00,
2013-05-03 22:23:00,51.7,31.6,29.99,NE,45,0.0,0.0,46,0.00,,---,0.00,VWS V14.00,2013-05-04 03:23:00,
2013-05-03 22:28:00,51.4,31.9,29.99,NE,45,0.0,0.0,47,0.00,,---,0.00,VWS V14.00,2013-05-04 03:28:00,
2013-05-03 22:33:00,51.0,31.5,29.99,NE,45,0.0,0.0,47,0.00,,---,0.00,VWS V14.00,2013-05-04 03:33:00,
2013-05-03 22:39:00,50.4,32.0,29.99,NE,45,0.0,0.0,49,0.00,,---,0.00,VWS V14.00,2013-05-04 03:39:00,
2013-05-03 22:44:00,50.1,32.2,29.99,NE,45,0.0,0.0,50,0.00,,---,0.00,VWS V14.00,2013-05-04 03:44:00,
2013-05-03 22:49:00,49.6,31.7,29.99,ESE,109,4.0,4.0,50,0.00,,---,0.00,VWS V14.00,2013-05-04 03:49:00,
2013-05-03 22:54:00,49.4,31.6,29.99,ESE,108,0.0,0.0,50,0.00,,---,0.00,VWS V14.00,2013-05-04 03:54:00,
2013-05-03 22:59:00,49.2,31.9,29.99,ESE,108,0.0,0.0,51,0.00,,---,0.00,VWS V14.00,2013-05-04 03:59:00,
2013-05-03 23:01:00,49.1,31.8,29.99,ESE,108,0.0,0.0,51,0.00,,---,0.00,VWS V14.00,2013-05-04 04:01:00,
2013-05-03 23:02:00,49.1,31.8,29.99,ESE,108,0.0,0.0,51,0.00,,---,0.00,VWS V14.00,2013-05-04 04:02:00,
2013-05-03 23:04:00,49.1,31.8,29.99,ESE,108,0.0,0.0,51,0.00,,---,0.00,VWS V14.00,2013-05-04 04:04:00,
2013-05-03 23:06:00,49.0,32.2,29.99,ESE,108,0.0,0.0,52,0.00,,---,0.00,VWS V14.00,2013-05-04 04:06:00,
2013-05-03 23:11:00,48.8,32.0,29.99,ESE,108,0.0,0.0,52,0.00,,---,0.00,VWS V14.00,2013-05-04 04:11:00,
2013-05-03 23:15:00,48.7,31.9,29.99,ESE,108,0.0,0.0,52,0.00,,---,0.00,VWS V14.00,2013-05-04 04:15:00,
2013-05-03 23:20:00,48.6,32.7,29.99,ESE,108,0.0,0.0,54,0.00,,---,0.00,VWS V14.00,2013-05-04 04:20:00,
2013-05-03 23:25:00,48.4,32.5,29.99,ESE,108,0.0,0.0,54,0.00,,---,0.00,VWS V14.00,2013-05-04 04:25:00,
2013-05-03 23:31:00,48.2,32.8,29.98,ESE,108,0.0,0.0,55,0.00,,---,0.00,VWS V14.00,2013-05-04 04:31:00,
2013-05-03 23:37:00,48.1,32.7,29.98,ESE,108,0.0,0.0,55,0.00,,---,0.00,VWS V14.00,2013-05-04 04:37:00,
2013-05-03 23:42:00,47.9,32.5,29.97,ESE,108,0.0,0.0,55,0.00,,---,0.00,VWS V14.00,2013-05-04 04:42:00,
2013-05-03 23:47:00,47.8,32.9,29.97,ESE,108,0.0,0.0,56,0.00,,---,0.00,VWS V14.00,2013-05-04 04:47:00,
2013-05-03 23:52:00,47.8,32.9,29.97,ESE,108,0.0,0.0,56,0.00,,---,0.00,VWS V14.00,2013-05-04 04:52:00,
2013-05-03 23:58:00,47.8,32.9,29.96,ESE,108,0.0,0.0,56,0.00,,---,0.00,VWS V14.00,2013-05-04 04:58:00,